Location: Maiden
(35.5760°N, 81.2120°W)
Time: 11:06:31
(UTC-04:00)

Vanguard 3 - Visible Passes

Search period start: 04 August 2020 00:00
Search period end: 14 August 2020 00:00
Orbit: 509 x 3261 km, 33.3° (Epoch: 04 August)

Date Brightness Start Highest point End Pass type
(mag) Time Alt. Az. Time Alt. Az. Time Alt. Az.
04 Aug 11.4 04:08:12 10° SSE 04:11:14 11° SE 04:14:09 10° SE visible
05 Aug 11.0 04:57:01 10° S 05:10:17 23° SE 05:20:58 10° E visible
06 Aug 11.3 03:45:48 10° SSE 03:54:16 14° SE 04:01:59 10° ESE visible
06 Aug 10.5 05:52:40 10° SSW 06:09:19 38° SSE 06:21:09 10° E visible
07 Aug 10.8 04:38:54 11° SSW 04:53:11 28° SE 05:05:24 10° E visible
08 Aug 11.1 03:29:01 14° SSE 03:37:06 18° SE 03:47:23 10° ESE visible
08 Aug 10.4 05:34:26 10° SW 05:52:13 44° SSE 06:05:13 10° E visible
09 Aug 10.7 04:23:40 17° S 04:35:56 33° SE 04:49:31 10° E visible
10 Aug 11.0 03:13:43 19° SSE 03:19:49 22° SE 03:31:57 10° E visible
10 Aug 10.3 05:18:16 14° SW 05:34:59 49° SSE 05:49:05 10° E visible
11 Aug 11.3 02:03:43 11° SE 02:04:00 11° SE 02:09:02 10° ESE visible
11 Aug 10.6 04:08:16 24° S 04:18:33 37° SE 04:33:22 10° E visible
11 Aug 10.1 06:14:48 10° SW 06:34:16 66° SSE 06:47:43 10° E visible
12 Aug 10.8 02:58:13 24° SSE 03:02:23 26° SE 03:16:03 10° E visible
12 Aug 10.3 05:02:46 20° SW 05:17:38 54° SSE 05:32:49 10° E visible
13 Aug 11.2 01:48:08 14° SE 01:48:08 14° SE 01:55:08 10° ESE visible
13 Aug 10.5 03:52:40 31° S 04:01:03 42° SE 04:17:01 10° E visible
13 Aug 10.1 05:57:13 10° WSW 06:17:03 70° SSE 06:31:30 10° E visible
